#timestamp,LO_Frequency,Hit,StdDev 
1459717215.3,286047000.2,N
1459717235.1,286047002.0,N
1459717255.9,286047004.2,N
1459717275.7,286047003.1,N
1459717295.5,286047001.6,N
1459717315.4,286047000.1,N
1459717335.2,286047001.4,N
1459717355.0,286047002.4,N
1459717355.9,286047002.4,N
1459717375.8,286047002.5,N
1459717395.6,286047002.0,N
1459717415.4,286047002.8,N
1459717435.3,286047002.4,N
1459717455.1,286047001.3,N
1459717456.0,286047001.3,N
1459717475.8,286047000.1,N
1459717495.6,286047002.7,N
1459717515.5,286047001.1,N
1459717535.3,286047001.1,N
1459717555.1,286046999.9,N
1459717575.9,286047002.4,N
1459717595.7,286047000.6,N
1459717615.5,286047000.5,N
1459717635.4,286047001.8,N
1459717655.2,286047002.0,N
1459717675.0,286047002.3,N
1459717675.9,286047002.3,N
1459717695.8,286047001.1,N
1459717715.6,286047000.1,N
1459717735.4,286047001.2,N
1459717755.3,286047002.6,N
1459717775.1,286046999.9,N
1459717776.0,286046999.9,N
1459717795.8,286046999.7,N
1459717815.7,286047002.6,N
1459717835.5,286047000.5,N
1459717855.3,286047000.7,N
1459717875.1,286047000.5,N
1459717895.9,286047001.0,N
1459717915.7,286047002.6,N
1459717935.5,286047000.6,N
1459717955.4,286047002.7,N
1459717975.2,286047003.7,Y
1459717995.0,286047000.7,P
1459717995.9,286047000.7,N
1459718015.8,286047002.2,P
1459718035.6,286047002.7,Y
1459718055.4,286046998.8,P
1459718075.3,286046999.6,N
1459718095.1,286046998.3,N
1459718115.8,286046998.2,N
1459718135.7,286046999.8,N
1459718155.5,286046998.3,N
1459718175.3,286047002.6,N
1459718195.2,286047004.0,N
1459718215.9,286047004.4,N
1459718235.7,286047004.4,N
1459718255.6,286047002.1,N
1459718275.4,286046998.6,N
1459718295.2,286047000.1,N
1459718315.1,286047000.3,N
1459718316.0,286047000.3,N
1459718335.8,286047000.2,N
1459718355.6,286047002.8,N
1459718375.4,286046999.7,N
1459718395.3,286047002.2,N
1459718415.1,286047002.6,N
1459718435.8,286047000.3,N
1459718455.7,286046999.7,N
1459718475.5,286047000.8,N
1459718495.3,286047002.7,N
1459718515.2,286046999.8,N
1459718535.9,286047002.6,N
1459718555.7,286047002.4,N
1459718575.6,286047001.6,N
1459718595.4,286047001.7,N
1459718615.2,286047002.1,N
1459718635.0,286047001.6,N
1459718636.0,286047001.6,N
1459718655.8,286047002.5,N
1459718675.6,286047002.0,N
1459718695.4,286047000.9,N
1459718715.3,286047002.5,N
1459718735.1,286047000.9,N
1459718755.8,286047000.0,N
1459718775.7,286047000.0,N
1459718795.5,286046998.2,N
1459718815.3,286047000.8,N
1459718835.2,286046999.0,N
1459718855.9,286047002.3,N
1459718875.7,286046999.0,N
1459718895.6,286046999.0,N
1459718915.4,286046998.7,N
1459718935.2,286046999.8,N
1459718955.1,286047000.8,N
1459718956.0,286047000.8,N
1459718975.8,286047000.7,N
1459718995.6,286047001.6,N
1459719015.4,286047001.7,N
1459719035.3,286047002.5,N
1459719055.1,286047001.8,N
1459719075.8,286047001.5,N
1459719095.7,286047004.3,Y
1459719115.5,286047002.8,P
1459719135.3,286047000.3,N
1459719155.2,286047002.4,N
1459719175.0,286047000.8,N
1459719175.9,286047000.8,N
1459719195.7,286047002.0,N
1459719215.6,286047002.1,N
1459719235.4,286046999.7,N
1459719255.2,286047004.0,Y
1459719275.1,286047000.1,P
1459719276.0,286047000.1,N
1459719295.8,286047000.5,N
1459719315.6,286047000.4,N
1459719335.5,286047002.2,Y
1459719355.3,286047000.4,P
1459719375.1,286047000.7,P
1459719395.9,286046999.5,P
1459719415.7,286046999.8,N
1459719435.5,286047000.4,N
1459719455.4,286046998.3,Y
1459719475.2,286046996.6,P
1459719495.0,286046995.1,N
1459719495.9,286046995.1,N
1459719515.8,286046996.9,N
1459719535.6,286046997.1,N
1459719555.4,286046997.7,N
1459719575.3,286046997.7,N
1459719595.1,286046996.3,N
1459719596.0,286046996.3,N
1459719615.8,286046995.1,Y
1459719635.7,286046996.7,P
1459719655.5,286046996.7,P
1459719675.3,286046999.0,P
1459719695.2,286046999.5,N
1459719715.9,286047000.5,N
1459719735.7,286047000.4,N
1459719755.6,286047000.9,N
1459719775.4,286047000.3,N
1459719795.2,286046996.6,N
1459719815.0,286046995.7,N
1459719815.9,286046995.7,N
1459719835.8,286046998.0,N
1459719855.6,286046998.0,N
1459719875.4,286046999.6,N
1459719895.3,286046999.3,N
1459719915.1,286046997.0,N
1459719935.8,286046999.5,N
1459719955.7,286046996.7,N
1459719975.5,286046996.5,N
1459719995.3,286046997.0,N
1459720015.2,286046996.5,N
1459720035.9,286046998.8,N
1459720055.7,286047002.8,N
1459720075.5,286047000.6,N
1459720095.4,286047001.1,N
1459720115.2,286046998.3,N
1459720135.0,286046998.4,N
1459720135.9,286046998.4,N
1459720155.8,286046998.5,N
1459720175.6,286046996.5,N
1459720195.4,286046997.0,N
1459720215.3,286047001.2,N
1459720235.1,286047000.0,N
1459720236.0,286047000.0,N
1459720255.8,286046998.9,N
1459720275.7,286046996.5,N
1459720295.5,286046996.8,N
1459720315.3,286046996.6,N
1459720335.2,286047002.6,N
1459720355.9,286047000.9,N
1459720375.7,286046999.1,N
1459720395.6,286046999.5,N
1459720415.4,286046999.4,N
1459720435.2,286046999.6,N
1459720455.0,286046996.7,N
1459720456.0,286046996.7,N
1459720475.8,286046998.0,N
1459720495.6,286046996.8,N
1459720515.4,286046998.6,N
1459720535.3,286047002.6,N
1459720555.1,286047000.7,N
1459720575.8,286047000.3,N
1459720595.7,286047001.2,N
1459720615.5,286046999.4,N
1459720635.3,286047000.0,N
1459720655.2,286047002.1,N
1459720675.9,286047001.9,N
1459720695.7,286047002.5,N
1459720715.6,286047001.4,N
1459720735.4,286047003.4,N
1459720755.2,286047006.0,N
1459720775.0,286047003.0,N
1459720776.0,286047003.0,N
1459720795.8,286047004.1,N
